Location: Rounton
(54.4000°N, 1.3500°W)
Time: 19:26:37
(UTC+01:00)

S-56A Canister/Altair - Pass Details

Date: 09 September 2024
Orbit: 636 x 2487 km, 38.9° (Epoch: 06 October)

Event Time Altitude Azimuth Distance (km) Brightness Sun altitude
Rises 00:21:58 0° 252° (WSW) 4,409 11.4 -29.8°
Reaches altitude 10° 00:24:53 10° 243° (WSW) 3,678 10.8 -29.9°
Enters shadow 00:26:48 17° 235° (SW) 3,281 10.5 -29.9°
Maximum altitude 00:33:32 35° 183° (S) 2,790 - -30.1°
Drops below altitude 10° 00:45:04 10° 125° (SE) 4,923 - -30.3°
Exits shadow 00:49:06 - 119° (ESE) 5,925 11.8 -30.3°
Sets 00:49:41 0° 118° (ESE) 6,070 11.8 -30.3°
